Regional Weather Roundup
Issued by NWS

Home | Current Version | Previous Version | Graphics & Text | Print | Product List | Glossary On
Versions: 1 2 3 4 5 6 7 8 9 10 11 12 13 14 15 16 17 18 19 20 21 22 23 24 25 26 27
000
ASUS45 KBOU 181010
RWRCO

WEATHER ROUNDUP FOR COLORADO
NATIONAL WEATHER SERVICE DENVER/BOULDER CO
300 AM MST MON DEC 18 2017

NOTE: "FAIR" INDICATES FEW OR NO CLOUDS BELOW 12000 FEET WITH NO
SIGNIFICANT WEATHER AND/OR OBSTRUCTIONS TO VISIBILITY.

COZ001>005-013-030-031-181100-
...NORTHWEST COLORADO...

CITY           SKY/WX    TMP DP  RH WIND       PRES   REMARKS
CRAIG          CLOUDY    16  12  84 CALM      30.20F
HAYDEN         CLOUDY    22  16  78 E10       30.20F WCI  11
MEEKER         FAIR      19  13  77 SE5       30.19S WCI  12
RABBIT EARS PA CLOUDY   N/A N/A N/A W12G18    30.12R FOG
STEAMBOAT SPGS CLOUDY    15  12  90 W6        30.19F WCI   6
WALDEN         FAIR      16   9  73 SE8       30.13S WCI   5
$$

COZ006>008-011-181100-
...WEST CENTRAL VALLEYS...

CITY           SKY/WX    TMP DP  RH WIND       PRES   REMARKS
GRAND JUNCTION FAIR      19   8  62 E6        30.21R WCI  11
MONTROSE       FAIR      17   6  62 S12       30.23R WCI   4
EAGLE          FAIR      10   5  80 CALM      30.25R
RIFLE          FAIR      14   7  73 SW3       30.23R
DELTA          FAIR      18   2  50 E7        30.23R WCI   8
NUCLA          FAIR      19   1  45 SE6       30.23R WCI  11
$$

COZ017>023-064>068-181100-
...SOUTHWEST COLORADO...

CITY           SKY/WX    TMP DP  RH WIND       PRES   REMARKS
DURANGO        FAIR      17   4  56 N9        30.13R WCI   6
CORTEZ         FAIR      12   3  67 NE6       30.16R WCI   3
PAGOSA SPRINGS FAIR      15   3  59 CALM      30.13F
TELLURIDE      FAIR      21   2  42 CALM      30.18R
WOLF CREEK PAS FAIR      18   1  49 SW12      30.20S WCI   5
$$

COZ009-010-012-014-032>034-037-058>063-181100-
...CENTRAL COLORADO...

CITY           SKY/WX    TMP DP  RH WIND       PRES   REMARKS
ASPEN          FAIR      14   5  67 SW8       30.16F WCI   3
BUENA VISTA    FAIR      26   4  38 NW18G25   30.09R WCI  13
COPPER MTN     NOT AVBL
BERTHOUD PASS  FAIR       9  -4  56 NW29G37   30.07F WCI -14
COTTONWOOD PAS FAIR      32   3  29 W18G28    30.09R WCI  20
GUNNISON       FAIR       4   1  88 CALM      30.22R
KREMMLING      FAIR       9   3  78 CALM      30.24R
LEADVILLE      FAIR       9  -2  61 NE9       30.13R WCI  -4
MONARCH PASS   FAIR      12   1  62 W32       30.20S WCI -10
SALIDA         FAIR      32   4  31 NW15G23   30.17R WCI  22
SUNLIGHT       FAIR      14   5  67 SW7       30.20S WCI   4
WILKERSON PASS FAIR      23  -6  28 NW12G21   30.10R WCI  12
$$

COZ069>075-181100-
...SAN LUIS VALLEY/SANGRE DE CRISTO MOUNTAINS...

CITY           SKY/WX    TMP DP  RH WIND       PRES   REMARKS
ALAMOSA        FAIR       8   3  80 NW5       30.13R WCI   0
DEL NORTE      FAIR      13   2  60 W9        30.15S WCI   1
LA VETA PASS   FAIR      23   9  54 S37G49      N/A  WCI   4
SAGUACHE       FAIR      21   3  45 NW15      30.15R WCI   8
$$

COZ035-036-038>040-181100-
...NORTHERN COLORADO FRONT RANGE...

CITY           SKY/WX    TMP DP  RH WIND       PRES   REMARKS
DENVER INTL AP FAIR      22  17  81 SW6       29.97S WCI  14
DMNS CITY PARK NOT AVBL
AURORA         CLEAR     20  15  82 S10       29.96F WCI   9
FRONT RANGE AP FAIR      24  20  84 S6        29.97S WCI  17
ERIE MUNI ARPT FAIR      18  16  92 CALM      30.04R
BOULDER MUN AP FAIR      23  21  93 CALM      29.97R
CENTENNIAL     FAIR      21  16  81 SE8       29.97S WCI  11
BROOMFIELD     FAIR      27  25  93 CALM      29.97R
FORT COLLINS   FAIR      21  19  92 NW3       29.98S
LONGMONT       FAIR      20  17  88 W3        30.00S FOG
$$

COZ041-046-047-076>085-087-088-181100-
...PIKES PEAK/PALMER DIVIDE AND SOUTHERN FOOTHILLS...

CITY           SKY/WX    TMP DP  RH WIND       PRES   REMARKS
COLO. SPRINGS  FAIR      23  11  60 N8        29.99R WCI  14
A. F. ACADEMY  FAIR      24   7  48 NE6       29.98R WCI  17
SCHRIEVER AFB  FAIR      29   8  40 NW3       29.99R
CHEYENNE MTN   FAIR      35   4  27 CALM      29.94R
ELLICOTT         N/A    N/A N/A N/A CALM      29.97R
FALCON         FAIR      31   7  36 NW12      29.99R WCI  22
FORT CARSON    FAIR      20  16  85 CALM      29.97R
LIMON          FAIR       5   3  91 NW5       29.98R WCI  -4
MONUMENT HILL  FAIR      25   5  42 W9        30.00S WCI  15
CANON CITY     FAIR      36  10  35 W7        29.98R
WALSENBURG     FAIR      39   9  28 W17G23    29.98S
TRINIDAD       FAIR      25  13  60 W9        29.98S WCI  15
$$

COZ042>045-048>051-090-091-181100-
...NORTHEAST COLORADO...

CITY           SKY/WX    TMP DP  RH WIND       PRES   REMARKS
GREELEY ARPT   FAIR      14  12  92 W3        29.99F
AKRON          FAIR      22  17  81 W10       29.96S WCI  11
BURLINGTON     FAIR      24  21  88 W12       30.00R WCI  13
WRAY           FAIR      21  19  93 W6        29.99S WCI  14
YUMA           FAIR      21  18  86 SW8       29.97S WCI  12
STERLING       FAIR      14  14 100 SW3       29.98R
HOLYOKE        FAIR      21  19  93 W9        29.97S WCI  11
FORT MORGAN    FAIR      15  13  92 W8        29.98S WCI   4
$$

COZ086-089-092>099-181100-
...SOUTHEAST COLORADO...

CITY           SKY/WX    TMP DP  RH WIND       PRES   REMARKS
PUEBLO         FAIR      12   9  87 N3        30.00R
LA JUNTA       FAIR      19  16  88 W9        30.00S WCI   8
LAMAR          FAIR      15  13  91 CALM      30.00R
SPRINGFIELD      N/A     19  15  84 W6        29.99R WCI  11
$$




USA.gov is the U.S. government's official web portal to all federal, state and local government web resources and services.